| time (UTC) | temp C | wind direction | speed KPH | gust KPH | rain 1hr cm | rain 24hr cm | rain mn cm | humidity % | barometer mb |
| 20260507113227 | 10 | 132 | 0.0 | 0.0 | 0.00 | 0.00 | 0.00 | 99 | 1010.6 |
| 20260507112724 | 10 | 132 | 0.0 | 0.0 | 0.00 | 0.00 | 0.00 | 99 | 1010.9 |
| 20260507112221 | 9 | 132 | 0.0 | 0.0 | 0.00 | 0.00 | 0.00 | 99 | 1010.8 |
| 20260507111718 | 9 | 131 | 0.0 | 0.0 | 0.00 | 0.00 | 0.00 | 99 | 1010.7 |
| 20260507111215 | 9 | 131 | 0.0 | 0.0 | 0.00 | 0.00 | 0.00 | 99 | 1010.6 |
| 20260507110711 | 9 | 131 | 0.0 | 0.0 | 0.00 | 0.00 | 0.00 | 99 | 1010.4 |
| 20260507110208 | 9 | 131 | 0.0 | 0.0 | 0.00 | 0.00 | 0.00 | 99 | 1010.2 |
| 20260507105705 | 9 | 131 | 0.0 | 0.0 | 0.00 | 0.00 | 0.00 | 99 | 1010.0 |
| 20260507105200 | 9 | 131 | 0.0 | 0.0 | 0.00 | 0.00 | 0.00 | 99 | 1010.2 |
| 20260507104658 | 9 | 132 | 0.0 | 0.0 | 0.00 | 0.00 | 0.00 | 99 | 1010.1 |
| 20260507104154 | 9 | 132 | 0.0 | 0.0 | 0.00 | 0.00 | 0.00 | 99 | 1010.1 |
| 20260507103650 | 9 | 132 | 0.0 | 0.0 | 0.00 | 0.00 | 0.00 | 99 | 1010.3 |
| 20260507103147 | 9 | 132 | 0.0 | 0.0 | 0.00 | 0.00 | 0.00 | 99 | 1010.3 |
| 20260507102644 | 9 | 132 | 0.0 | 0.0 | 0.00 | 0.00 | 0.00 | 99 | 1010.0 |
| 20260507102140 | 9 | 131 | 0.0 | 0.0 | 0.00 | 0.00 | 0.00 | 99 | 1010.2 |
| 20260507101636 | 9 | 131 | 0.0 | 0.0 | 0.00 | 0.00 | 0.00 | 99 | 1010.3 |
| 20260507101132 | 9 | 131 | 0.0 | 0.0 | 0.00 | 0.00 | 0.00 | 98 | 1010.1 |
| 20260507100630 | 9 | 131 | 0.0 | 0.0 | 0.00 | 0.00 | 0.00 | 98 | 1010.0 |
| 20260507100128 | 9 | 131 | 0.0 | 0.0 | 0.00 | 0.00 | 0.00 | 98 | 1009.7 |
| 20260507095626 | 9 | 131 | 0.0 | 0.0 | 0.00 | 0.00 | 0.00 | 98 | 1009.9 |
| 20260507095122 | 9 | 131 | 0.0 | 0.0 | 0.00 | 0.00 | 0.00 | 98 | 1009.9 |
| 20260507094618 | 9 | 131 | 0.0 | 0.0 | 0.00 | 0.00 | 0.00 | 98 | 1009.9 |
| 20260507094115 | 9 | 131 | 0.0 | 0.0 | 0.00 | 0.00 | 0.00 | 98 | 1009.9 |
| 20260507093612 | 9 | 131 | 0.0 | 0.0 | 0.00 | 0.00 | 0.00 | 98 | 1009.9 |
| 20260507093111 | 9 | 131 | 0.0 | 0.0 | 0.00 | 0.00 | 0.00 | 98 | 1010.1 |
| 20260507092607 | 9 | 132 | 0.0 | 0.0 | 0.00 | 0.00 | 0.00 | 98 | 1010.1 |
| 20260507092103 | 9 | 131 | 0.0 | 0.0 | 0.00 | 0.00 | 0.00 | 98 | 1010.3 |
| 20260507091601 | 9 | 131 | 0.0 | 0.0 | 0.00 | 0.00 | 0.00 | 98 | 1010.2 |
| 20260507091056 | 9 | 131 | 0.0 | 0.0 | 0.00 | 0.00 | 0.00 | 98 | 1010.2 |
| 20260507090552 | 9 | 130 | 0.0 | 0.0 | 0.00 | 0.00 | 0.00 | 98 | 1010.1 |
| 20260507090049 | 9 | 131 | 0.0 | 0.0 | 0.00 | 0.00 | 0.00 | 98 | 1010.3 |
| 20260507085546 | 9 | 130 | 0.0 | 0.0 | 0.00 | 0.00 | 0.00 | 98 | 1010.0 |
| 20260507085043 | 9 | 130 | 0.0 | 0.0 | 0.00 | 0.00 | 0.00 | 98 | 1009.9 |
| 20260507084540 | 9 | 130 | 0.0 | 0.0 | 0.00 | 0.00 | 0.00 | 98 | 1009.9 |
| 20260507084037 | 9 | 132 | 0.0 | 0.0 | 0.00 | 0.00 | 0.00 | 98 | 1009.8 |
| 20260507083533 | 9 | 131 | 0.0 | 0.0 | 0.00 | 0.00 | 0.00 | 98 | 1009.7 |
| 20260507083030 | 10 | 131 | 0.0 | 0.0 | 0.00 | 0.00 | 0.00 | 98 | 1009.7 |
| 20260507082526 | 10 | 132 | 0.0 | 0.0 | 0.00 | 0.00 | 0.00 | 98 | 1009.8 |
| 20260507082023 | 10 | 131 | 0.0 | 0.0 | 0.00 | 0.00 | 0.00 | 98 | 1009.9 |
| 20260507081519 | 10 | 131 | 0.0 | 0.0 | 0.00 | 0.00 | 0.00 | 98 | 1010.0 |
| 20260507081016 | 10 | 130 | 1.6 | 1.6 | 0.00 | 0.00 | 0.00 | 98 | 1009.9 |
| 20260507080512 | 10 | 132 | 1.6 | 1.6 | 0.00 | 0.00 | 0.00 | 98 | 1009.8 |
| 20260507080008 | 10 | 131 | 1.6 | 1.6 | 0.00 | 0.00 | 0.00 | 97 | 1009.8 |
| 20260507075504 | 10 | 131 | 0.0 | 0.0 | 0.00 | 0.00 | 0.00 | 97 | 1009.9 |
| 20260507075001 | 10 | 131 | 0.0 | 0.0 | 0.00 | 0.00 | 0.00 | 97 | 1010.0 |
| 20260507074457 | 10 | 130 | 0.0 | 0.0 | 0.00 | 0.00 | 0.00 | 97 | 1010.2 |
| 20260507073955 | 10 | 130 | 0.0 | 0.0 | 0.00 | 0.00 | 0.00 | 97 | 1010.3 |
| 20260507073451 | 10 | 129 | 0.0 | 0.0 | 0.00 | 0.00 | 0.00 | 97 | 1010.1 |
| 20260507072948 | 10 | 129 | 0.0 | 0.0 | 0.00 | 0.00 | 0.00 | 97 | 1010.3 |
| 20260507072446 | 10 | 129 | 0.0 | 0.0 | 0.00 | 0.00 | 0.00 | 97 | 1009.9 |
| 20260507071943 | 10 | 130 | 0.0 | 0.0 | 0.00 | 0.00 | 0.00 | 97 | 1009.9 |
| 20260507071440 | 10 | 129 | 0.0 | 0.0 | 0.00 | 0.00 | 0.00 | 96 | 1010.0 |
| 20260507070936 | 10 | 129 | 0.0 | 0.0 | 0.00 | 0.00 | 0.00 | 96 | 1010.0 |
| 20260507070434 | 10 | 130 | 0.0 | 0.0 | 0.00 | 0.00 | 0.00 | 96 | 1010.0 |
| 20260507065930 | 10 | 129 | 0.0 | 0.0 | 0.00 | 0.00 | 0.00 | 96 | 1009.9 |
| 20260507065427 | 10 | 130 | 0.0 | 0.0 | 0.00 | 0.00 | 0.00 | 96 | 1010.1 |
| 20260507064919 | 10 | 129 | 0.0 | 0.0 | 0.00 | 0.00 | 0.00 | 96 | 1010.2 |
| 20260507064417 | 10 | 129 | 0.0 | 0.0 | 0.00 | 0.00 | 0.00 | 96 | 1010.3 |
| 20260507063915 | 10 | 129 | 0.0 | 0.0 | 0.00 | 0.00 | 0.00 | 96 | 1010.2 |
| 20260507063411 | 10 | 127 | 0.0 | 0.0 | 0.00 | 0.00 | 0.00 | 96 | 1010.0 |
| 20260507062908 | 10 | 131 | 0.0 | 0.0 | 0.00 | 0.00 | 0.00 | 96 | 1010.0 |
| 20260507062405 | 10 | 132 | 0.0 | 0.0 | 0.00 | 0.00 | 0.00 | 96 | 1009.9 |
| 20260507061903 | 10 | 131 | 0.0 | 0.0 | 0.00 | 0.00 | 0.00 | 96 | 1010.0 |
| 20260507061401 | 10 | 132 | 0.0 | 0.0 | 0.00 | 0.00 | 0.00 | 96 | 1010.0 |
| 20260507060859 | 10 | 132 | 0.0 | 0.0 | 0.00 | 0.00 | 0.00 | 96 | 1009.9 |
| 20260507060355 | 10 | 132 | 0.0 | 0.0 | 0.00 | 0.00 | 0.00 | 95 | 1010.3 |
| 20260507055852 | 10 | 136 | 0.0 | 0.0 | 0.00 | 0.00 | 0.00 | 95 | 1010.3 |
| 20260507055347 | 10 | 131 | 0.0 | 0.0 | 0.00 | 0.00 | 0.00 | 95 | 1010.2 |
| 20260507054844 | 10 | 131 | 0.0 | 0.0 | 0.00 | 0.00 | 0.00 | 95 | 1010.5 |
| 20260507054340 | 10 | 131 | 0.0 | 0.0 | 0.00 | 0.00 | 0.00 | 95 | 1010.5 |
| 20260507053837 | 10 | 131 | 0.0 | 0.0 | 0.00 | 0.00 | 0.00 | 95 | 1010.2 |
| 20260507053335 | 10 | 131 | 0.0 | 0.0 | 0.00 | 0.00 | 0.00 | 95 | 1010.2 |
| 20260507052834 | 10 | 132 | 0.0 | 0.0 | 0.00 | 0.00 | 0.00 | 95 | 1010.6 |
| 20260507052330 | 10 | 129 | 0.0 | 0.0 | 0.00 | 0.00 | 0.00 | 96 | 1010.7 |
| 20260507051828 | 10 | 133 | 0.0 | 0.0 | 0.00 | 0.00 | 0.00 | 95 | 1010.6 |
| 20260507051325 | 10 | 131 | 0.0 | 0.0 | 0.00 | 0.00 | 0.00 | 95 | 1010.4 |
| 20260507050822 | 10 | 132 | 0.0 | 0.0 | 0.00 | 0.00 | 0.00 | 95 | 1010.5 |
| 20260507050318 | 11 | 131 | 0.0 | 0.0 | 0.00 | 0.00 | 0.00 | 95 | 1010.3 |
| 20260507045816 | 11 | 132 | 0.0 | 0.0 | 0.00 | 0.00 | 0.00 | 95 | 1010.2 |
| 20260507045312 | 11 | 132 | 0.0 | 0.0 | 0.00 | 0.00 | 0.00 | 95 | 1010.4 |
| 20260507044809 | 11 | 130 | 0.0 | 0.0 | 0.00 | 0.00 | 0.00 | 94 | 1010.4 |
| 20260507044306 | 11 | 131 | 0.0 | 0.0 | 0.00 | 0.00 | 0.00 | 94 | 1010.7 |
| 20260507043802 | 11 | 131 | 0.0 | 0.0 | 0.00 | 0.00 | 0.00 | 93 | 1010.6 |
| 20260507043258 | 11 | 126 | 1.6 | 1.6 | 0.00 | 0.00 | 0.00 | 92 | 1010.9 |
| 20260507042754 | 11 | 129 | 1.6 | 1.6 | 0.00 | 0.00 | 0.00 | 94 | 1010.7 |
| 20260507042250 | 11 | 131 | 1.6 | 1.6 | 0.00 | 0.00 | 0.00 | 93 | 1010.6 |
| 20260507041747 | 11 | 128 | 0.0 | 0.0 | 0.00 | 0.00 | 0.00 | 93 | 1010.5 |
| 20260507041244 | 11 | 128 | 0.0 | 1.6 | 0.00 | 0.00 | 0.00 | 92 | 1010.4 |
| 20260507040741 | 11 | 128 | 0.0 | 1.6 | 0.00 | 0.00 | 0.00 | 91 | 1010.4 |
| 20260507040237 | 11 | 129 | 0.0 | 0.0 | 0.00 | 0.00 | 0.00 | 91 | 1010.3 |
| 20260507035733 | 11 | 128 | 0.0 | 0.0 | 0.00 | 1.27 | 1.27 | 90 | 1010.4 |
| 20260507035229 | 11 | 146 | 1.6 | 1.6 | 0.00 | 1.27 | 1.27 | 92 | 1010.1 |
| 20260507034726 | 11 | 128 | 0.0 | 0.0 | 0.00 | 1.27 | 1.27 | 93 | 1010.3 |
| 20260507034223 | 11 | 149 | 3.2 | 3.2 | 0.00 | 1.27 | 1.27 | 92 | 1009.9 |
| 20260507033722 | 11 | 129 | 0.0 | 0.0 | 0.00 | 1.27 | 1.27 | 94 | 1010.0 |
| 20260507033219 | 11 | 121 | 1.6 | 1.6 | 0.00 | 1.27 | 1.27 | 95 | 1009.9 |
| 20260507032716 | 11 | 128 | 0.0 | 0.0 | 0.00 | 1.27 | 1.27 | 96 | 1010.0 |
| 20260507032212 | 11 | 129 | 0.0 | 0.0 | 0.00 | 1.27 | 1.27 | 98 | 1009.8 |
| 20260507031709 | 12 | 128 | 0.0 | 0.0 | 0.00 | 1.27 | 1.27 | 99 | 1010.2 |
| 20260507031205 | 12 | 133 | 0.0 | 0.0 | 0.00 | 1.27 | 1.27 | 99 | 1010.0 |
| 20260507030702 | 12 | 131 | 0.0 | 0.0 | 0.00 | 1.27 | 1.27 | 99 | 1009.8 |
| 20260507030200 | 12 | 131 | 0.0 | 0.0 | 0.00 | 1.27 | 1.27 | 99 | 1009.9 |
| 20260507025657 | 12 | 131 | 0.0 | 0.0 | 0.00 | 1.27 | 1.27 | 98 | 1010.0 |
| 20260507025154 | 12 | 128 | 0.0 | 0.0 | 0.00 | 1.27 | 1.27 | 98 | 1010.1 |
| 20260507024652 | 12 | 135 | 0.0 | 0.0 | 0.00 | 1.27 | 1.27 | 98 | 1010.2 |
| 20260507024149 | 12 | 129 | 0.0 | 0.0 | 0.00 | 1.27 | 1.27 | 98 | 1010.1 |
| 20260507023644 | 12 | 130 | 0.0 | 0.0 | 0.00 | 1.27 | 1.27 | 98 | 1010.2 |
| 20260507023142 | 12 | 129 | 0.0 | 0.0 | 0.00 | 1.27 | 1.27 | 98 | 1010.2 |
| 20260507022639 | 12 | 121 | 0.0 | 0.0 | 0.00 | 1.27 | 1.27 | 98 | 1009.8 |
| 20260507022134 | 13 | 125 | 0.0 | 0.0 | 0.00 | 1.27 | 1.27 | 98 | 1010.1 |
| 20260507021631 | 13 | 111 | 0.0 | 0.0 | 0.00 | 1.27 | 1.27 | 98 | 1010.2 |
| 20260507021126 | 13 | 128 | 0.0 | 0.0 | 0.00 | 1.27 | 1.27 | 98 | 1010.2 |
| 20260507020625 | 13 | 128 | 1.6 | 1.6 | 0.00 | 1.27 | 1.27 | 98 | 1010.4 |
| 20260507020121 | 13 | 128 | 1.6 | 1.6 | 0.00 | 1.27 | 1.27 | 98 | 1010.3 |
| 20260507015619 | 13 | 124 | 3.2 | 3.2 | 0.00 | 1.27 | 1.27 | 98 | 1010.0 |
| 20260507015116 | 13 | 116 | 1.6 | 3.2 | 0.00 | 1.27 | 1.27 | 98 | 1010.3 |
| 20260507014613 | 13 | 141 | 1.6 | 1.6 | 0.00 | 1.27 | 1.27 | 98 | 1009.8 |
| 20260507014109 | 13 | 118 | 3.2 | 3.2 | 0.00 | 1.27 | 1.27 | 98 | 1009.1 |
| 20260507013606 | 13 | 124 | 0.0 | 0.0 | 0.00 | 1.27 | 1.27 | 98 | 1009.7 |
| 20260507013103 | 13 | 101 | 3.2 | 3.2 | 0.00 | 1.27 | 1.27 | 98 | 1009.3 |
| 20260507012600 | 13 | 128 | 0.0 | 0.0 | 0.00 | 1.27 | 1.27 | 98 | 1009.5 |
| 20260507012055 | 13 | 132 | 0.0 | 0.0 | 0.00 | 1.27 | 1.27 | 98 | 1009.2 |
| 20260507011554 | 13 | 125 | 1.6 | 1.6 | 0.00 | 1.27 | 1.27 | 98 | 1009.1 |
| 20260507011050 | 13 | 115 | 0.0 | 1.6 | 0.00 | 1.27 | 1.27 | 98 | 1008.6 |
| 20260507010544 | 13 | 103 | 3.2 | 3.2 | 0.00 | 1.27 | 1.27 | 98 | 1009.5 |
| 20260507010041 | 13 | 119 | 0.0 | 0.0 | 0.00 | 1.27 | 1.27 | 98 | 1009.2 |
| 20260507005538 | 13 | 129 | 0.0 | 0.0 | 0.00 | 1.27 | 1.27 | 98 | 1009.0 |
| 20260507005034 | 13 | 132 | 0.0 | 0.0 | 0.00 | 1.27 | 1.27 | 98 | 1008.9 |
| 20260507004531 | 13 | 131 | 0.0 | 0.0 | 0.00 | 1.27 | 1.27 | 98 | 1008.5 |
| 20260507004029 | 13 | 120 | 4.8 | 4.8 | 0.00 | 1.27 | 1.27 | 98 | 1008.1 |
| 20260507003524 | 13 | 128 | 0.0 | 0.0 | 0.00 | 1.27 | 1.27 | 98 | 1008.6 |
| 20260507003020 | 13 | 121 | 3.2 | 3.2 | 0.00 | 1.27 | 1.27 | 98 | 1008.6 |
| 20260507002517 | 13 | 121 | 1.6 | 3.2 | 0.00 | 1.27 | 1.27 | 97 | 1008.6 |
| 20260507002013 | 13 | 128 | 0.0 | 0.0 | 0.00 | 1.27 | 1.27 | 97 | 1008.8 |
| 20260507001509 | 13 | 130 | 1.6 | 1.6 | 0.00 | 1.27 | 1.27 | 97 | 1008.8 |
| 20260507001007 | 13 | 145 | 1.6 | 1.6 | 0.00 | 1.27 | 1.27 | 97 | 1008.5 |
| 20260507000503 | 13 | 108 | 3.2 | 3.2 | 0.00 | 1.27 | 1.27 | 98 | 1007.6 |
| 20260506235958 | 13 | 130 | 4.8 | 4.8 | 0.00 | 1.27 | 1.27 | 97 | 1008.0 |
| 20260506235456 | 13 | 136 | 1.6 | 3.2 | 0.00 | 1.27 | 1.27 | 97 | 1008.2 |
| 20260506234952 | 13 | 121 | 3.2 | 3.2 | 0.00 | 1.27 | 1.27 | 97 | 1008.2 |
| 20260506234449 | 13 | 102 | 4.8 | 4.8 | 0.00 | 1.27 | 1.27 | 97 | 1008.6 |
| 20260506233947 | 13 | 128 | 0.0 | 0.0 | 0.00 | 1.27 | 1.27 | 96 | 1008.8 |
| 20260506233443 | 13 | 131 | 1.6 | 1.6 | 0.00 | 1.27 | 1.27 | 96 | 1008.4 |
| 20260506232939 | 13 | 132 | 1.6 | 1.6 | 0.00 | 1.27 | 1.27 | 96 | 1008.4 |
| 20260506232436 | 13 | 120 | 1.6 | 1.6 | 0.00 | 1.27 | 1.27 | 96 | 1008.1 |
| 20260506231931 | 13 | 129 | 4.8 | 4.8 | 0.00 | 1.27 | 1.27 | 96 | 1008.0 |
| 20260506231429 | 14 | 126 | 1.6 | 3.2 | 0.00 | 1.27 | 1.27 | 95 | 1007.9 |
| 20260506230926 | 13 | 128 | 0.0 | 0.0 | 0.00 | 1.27 | 1.27 | 95 | 1008.0 |
| 20260506230422 | 13 | 128 | 0.0 | 1.6 | 0.00 | 1.27 | 1.27 | 95 | 1008.2 |
| 20260506225919 | 13 | 119 | 1.6 | 1.6 | 0.00 | 1.27 | 1.27 | 94 | 1008.0 |
| 20260506225416 | 13 | 121 | 0.0 | 0.0 | 0.00 | 1.27 | 1.27 | 94 | 1008.5 |
| 20260506224908 | 14 | 129 | 1.6 | 1.6 | 0.00 | 1.27 | 1.27 | 94 | 1008.8 |
| 20260506224405 | 14 | 125 | 1.6 | 3.2 | 0.00 | 1.27 | 1.27 | 94 | 1008.5 |
| 20260506223901 | 14 | 135 | 3.2 | 3.2 | 0.00 | 1.27 | 1.27 | 94 | 1008.6 |
| 20260506223356 | 14 | 125 | 0.0 | 0.0 | 0.00 | 1.27 | 1.27 | 94 | 1009.1 |
| 20260506222854 | 14 | 127 | 0.0 | 0.0 | 0.00 | 1.27 | 1.27 | 93 | 1008.8 |
| 20260506222350 | 15 | 131 | 0.0 | 0.0 | 0.00 | 1.27 | 1.27 | 93 | 1008.7 |
| 20260506221848 | 15 | 123 | 0.0 | 0.0 | 0.00 | 1.27 | 1.27 | 93 | 1008.6 |
| 20260506221345 | 15 | 123 | 0.0 | 0.0 | 0.00 | 1.27 | 1.27 | 93 | 1008.3 |
| 20260506220842 | 15 | 117 | 1.6 | 1.6 | 0.00 | 1.27 | 1.27 | 93 | 1008.2 |
| 20260506220338 | 15 | 119 | 0.0 | 1.6 | 0.00 | 1.27 | 1.27 | 93 | 1008.3 |
| 20260506215835 | 15 | 122 | 0.0 | 1.6 | 0.00 | 1.27 | 1.27 | 93 | 1008.3 |
| 20260506215330 | 15 | 133 | 0.0 | 0.0 | 0.00 | 1.27 | 1.27 | 93 | 1008.2 |
| 20260506214827 | 14 | 134 | 0.0 | 0.0 | 0.00 | 1.27 | 1.27 | 92 | 1007.9 |
| 20260506214323 | 14 | 131 | 0.0 | 0.0 | 0.00 | 1.27 | 1.27 | 91 | 1008.1 |
| 20260506213822 | 14 | 134 | 0.0 | 0.0 | 0.00 | 1.27 | 1.27 | 92 | 1008.0 |
| 20260506213319 | 14 | 122 | 1.6 | 1.6 | 0.00 | 1.27 | 1.27 | 91 | 1007.9 |
| 20260506212816 | 14 | 126 | 1.6 | 1.6 | 0.00 | 1.27 | 1.27 | 91 | 1008.1 |
| 20260506212312 | 15 | 124 | 0.0 | 1.6 | 0.00 | 1.27 | 1.27 | 91 | 1007.9 |
| 20260506211807 | 15 | 136 | 0.0 | 1.6 | 0.00 | 1.27 | 1.27 | 91 | 1007.9 |
| 20260506211303 | 15 | 136 | 3.2 | 3.2 | 0.00 | 1.27 | 1.27 | 91 | 1008.0 |
| 20260506210801 | 15 | 116 | 6.4 | 8.0 | 0.00 | 1.27 | 1.27 | 91 | 1008.0 |
| 20260506210257 | 15 | 122 | 1.6 | 1.6 | 0.00 | 1.27 | 1.27 | 90 | 1007.9 |
| 20260506205754 | 15 | 132 | 0.0 | 0.0 | 0.00 | 1.27 | 1.27 | 91 | 1007.9 |
| 20260506205250 | 15 | 129 | 0.0 | 0.0 | 0.00 | 1.27 | 1.27 | 91 | 1007.9 |
| 20260506204747 | 15 | 128 | 1.6 | 1.6 | 0.00 | 1.27 | 1.27 | 91 | 1008.0 |
| 20260506204245 | 15 | 135 | 0.0 | 0.0 | 0.00 | 1.27 | 1.27 | 91 | 1008.2 |
| 20260506203742 | 15 | 136 | 3.2 | 3.2 | 0.00 | 1.27 | 1.27 | 89 | 1007.8 |
| 20260506203239 | 15 | 121 | 4.8 | 4.8 | 0.00 | 1.27 | 1.27 | 90 | 1007.9 |
| 20260506202736 | 15 | 120 | 3.2 | 3.2 | 0.00 | 1.27 | 1.27 | 91 | 1007.9 |
| 20260506202233 | 14 | 126 | 3.2 | 3.2 | 0.00 | 1.27 | 1.27 | 90 | 1007.9 |
| 20260506201730 | 14 | 134 | 0.0 | 0.0 | 0.00 | 1.27 | 1.27 | 93 | 1008.0 |
| 20260506201226 | 14 | 144 | 3.2 | 4.8 | 0.00 | 1.27 | 1.27 | 93 | 1007.9 |
| 20260506200723 | 14 | 131 | 0.0 | 0.0 | 0.00 | 1.27 | 1.27 | 94 | 1007.9 |
| 20260506200220 | 13 | 120 | 0.0 | 0.0 | 0.00 | 1.27 | 1.27 | 94 | 1008.1 |
| 20260506195716 | 14 | 131 | 1.6 | 3.2 | 0.00 | 1.27 | 1.27 | 93 | 1008.1 |
| 20260506195213 | 14 | 134 | 1.6 | 1.6 | 0.00 | 1.27 | 1.27 | 93 | 1008.0 |
| 20260506194710 | 14 | 126 | 0.0 | 1.6 | 0.00 | 1.27 | 1.27 | 93 | 1008.0 |
| 20260506194207 | 13 | 119 | 1.6 | 3.2 | 0.00 | 1.27 | 1.27 | 92 | 1007.8 |
| 20260506193705 | 14 | 125 | 0.0 | 0.0 | 0.00 | 1.27 | 1.27 | 94 | 1007.9 |
| 20260506193201 | 13 | 136 | 0.0 | 0.0 | 0.00 | 1.27 | 1.27 | 92 | 1007.9 |
| 20260506192658 | 13 | 134 | 0.0 | 1.6 | 0.00 | 1.27 | 1.27 | 93 | 1007.9 |
| 20260506192154 | 13 | 119 | 1.6 | 1.6 | 0.00 | 1.27 | 1.27 | 94 | 1007.7 |
| 20260506191651 | 13 | 129 | 0.0 | 0.0 | 0.00 | 1.27 | 1.27 | 94 | 1007.8 |
| 20260506191147 | 13 | 134 | 1.6 | 1.6 | 0.00 | 1.27 | 1.27 | 94 | 1007.8 |
| 20260506190645 | 13 | 99 | 4.8 | 4.8 | 0.00 | 1.27 | 1.27 | 94 | 1007.9 |
| 20260506190141 | 13 | 115 | 1.6 | 1.6 | 0.00 | 1.27 | 1.27 | 95 | 1007.8 |
| 20260506185638 | 13 | 151 | 3.2 | 4.8 | 0.00 | 1.27 | 1.27 | 94 | 1007.8 |
| 20260506185134 | 13 | 336 | 4.8 | 4.8 | 0.00 | 1.27 | 1.27 | 95 | 1007.8 |
| 20260506184632 | 13 | 28 | 3.2 | 3.2 | 0.00 | 1.27 | 1.27 | 96 | 1008.1 |
| 20260506184129 | 13 | 123 | 0.0 | 0.0 | 0.00 | 1.27 | 1.27 | 96 | 1007.9 |
| 20260506183626 | 13 | 134 | 0.0 | 1.6 | 0.00 | 1.27 | 1.27 | 97 | 1008.0 |
| 20260506183122 | 12 | 120 | 1.6 | 3.2 | 0.00 | 1.27 | 1.27 | 98 | 1007.9 |
| 20260506182620 | 12 | 137 | 1.6 | 1.6 | 0.00 | 1.27 | 1.27 | 98 | 1007.8 |
| 20260506182116 | 12 | 146 | 3.2 | 3.2 | 0.00 | 1.27 | 1.27 | 98 | 1007.8 |
| 20260506181614 | 12 | 108 | 3.2 | 3.2 | 0.00 | 1.27 | 1.27 | 98 | 1007.8 |
| 20260506181111 | 12 | 112 | 3.2 | 3.2 | 0.00 | 1.27 | 1.27 | 98 | 1008.0 |
| 20260506180608 | 12 | 119 | 1.6 | 3.2 | 0.00 | 1.27 | 1.27 | 99 | 1007.8 |
| 20260506180104 | 12 | 135 | 0.0 | 1.6 | 0.00 | 1.27 | 1.27 | 99 | 1007.6 |
| 20260506175601 | 12 | 54 | 3.2 | 3.2 | 0.00 | 1.27 | 1.27 | 99 | 1007.6 |
| 20260506175057 | 12 | 113 | 3.2 | 3.2 | 0.00 | 1.27 | 1.27 | 99 | 1007.3 |
| 20260506174556 | 12 | 126 | 0.0 | 0.0 | 0.00 | 1.27 | 1.27 | 99 | 1007.6 |
| 20260506174051 | 12 | 142 | 3.2 | 3.2 | 0.00 | 1.27 | 1.27 | 99 | 1007.8 |
| 20260506173549 | 12 | 151 | 3.2 | 3.2 | 0.00 | 1.27 | 1.27 | 99 | 1007.7 |
| 20260506173046 | 12 | 129 | 3.2 | 3.2 | 0.00 | 1.27 | 1.27 | 99 | 1007.8 |
| 20260506172544 | 12 | 130 | 0.0 | 1.6 | 0.00 | 1.27 | 1.27 | 99 | 1007.9 |
| 20260506172040 | 12 | 148 | 1.6 | 3.2 | 0.00 | 1.27 | 1.27 | 99 | 1008.0 |
| 20260506171537 | 12 | 51 | 4.8 | 4.8 | 0.00 | 1.27 | 1.27 | 99 | 1008.1 |
| 20260506171035 | 12 | 128 | 0.0 | 0.0 | 0.00 | 1.27 | 1.27 | 99 | 1007.9 |
| 20260506170532 | 12 | 137 | 3.2 | 3.2 | 0.00 | 1.27 | 1.27 | 99 | 1008.1 |
| 20260506170024 | 11 | 101 | 3.2 | 3.2 | 0.00 | 1.27 | 1.27 | 99 | 1007.9 |
| 20260506165522 | 11 | 39 | 4.8 | 4.8 | 0.00 | 1.27 | 1.27 | 99 | 1007.8 |
| 20260506165018 | 12 | 280 | 6.4 | 8.0 | 0.00 | 1.27 | 1.27 | 99 | 1007.9 |
| 20260506164515 | 11 | 34 | 3.2 | 4.8 | 0.00 | 1.27 | 1.27 | 99 | 1007.8 |
| 20260506164012 | 11 | 189 | 1.6 | 3.2 | 0.00 | 1.27 | 1.27 | 99 | 1007.8 |
| 20260506163508 | 12 | 136 | 1.6 | 1.6 | 0.00 | 1.27 | 1.27 | 99 | 1007.5 |
| 20260506163004 | 11 | 198 | 4.8 | 4.8 | 0.00 | 1.27 | 1.27 | 99 | 1007.9 |
| 20260506162500 | 11 | 332 | 6.4 | 8.0 | 0.00 | 1.27 | 1.27 | 99 | 1007.7 |
| 20260506161957 | 11 | 142 | 0.0 | 1.6 | 0.00 | 1.27 | 1.27 | 99 | 1007.8 |
| 20260506161455 | 11 | 150 | 1.6 | 3.2 | 0.00 | 1.27 | 1.27 | 99 | 1007.8 |
| 20260506160952 | 11 | 124 | 1.6 | 1.6 | 0.00 | 1.27 | 1.27 | 99 | 1007.7 |
| 20260506160449 | 11 | 77 | 6.4 | 8.0 | 0.00 | 1.27 | 1.27 | 99 | 1007.6 |
| 20260506155946 | 11 | 124 | 3.2 | 3.2 | 0.00 | 1.27 | 1.27 | 99 | 1007.7 |
| 20260506155444 | 11 | 137 | 1.6 | 1.6 | 0.00 | 1.27 | 1.27 | 99 | 1007.2 |
| 20260506153611 | 12 | 126 | 1.6 | 1.6 | 0.00 | 1.27 | 1.27 | 99 | 1007.1 |
| 20260506153108 | 12 | 148 | 1.6 | 3.2 | 0.00 | 1.27 | 1.27 | 99 | 1007.2 |
| 20260506152605 | 12 | 165 | 3.2 | 3.2 | 0.00 | 1.27 | 1.27 | 99 | 1007.2 |
| 20260506152103 | 12 | 8 | 4.8 | 8.0 | 0.00 | 1.27 | 1.27 | 99 | 1006.9 |
| 20260506151601 | 12 | 113 | 3.2 | 3.2 | 0.00 | 1.27 | 1.27 | 99 | 1006.9 |
| 20260506151058 | 12 | 80 | 6.4 | 8.0 | 0.00 | 1.27 | 1.27 | 99 | 1006.8 |
| 20260506150554 | 12 | 53 | 4.8 | 4.8 | 0.00 | 1.27 | 1.27 | 99 | 1006.7 |
| 20260506150051 | 12 | 51 | 3.2 | 4.8 | 0.00 | 1.27 | 1.27 | 99 | 1006.9 |
| 20260506145548 | 12 | 122 | 1.6 | 1.6 | 0.00 | 1.27 | 1.27 | 99 | 1006.7 |
| 20260506145045 | 12 | 144 | 1.6 | 3.2 | 0.13 | 1.27 | 1.27 | 99 | 1006.7 |
| 20260506144542 | 12 | 339 | 6.4 | 8.0 | 0.13 | 1.27 | 1.27 | 99 | 1006.3 |
| 20260506144039 | 12 | 67 | 4.8 | 4.8 | 0.00 | 1.24 | 1.24 | 99 | 1006.4 |
| 20260506143537 | 13 | 128 | 3.2 | 3.2 | 0.00 | 1.24 | 1.24 | 99 | 1006.2 |
| 20260506143035 | 14 | 133 | 1.6 | 3.2 | 0.18 | 1.24 | 1.24 | 99 | 1006.0 |
| 20260506142532 | 15 | 23 | 4.8 | 8.0 | 0.18 | 1.24 | 1.24 | 99 | 1005.9 |
| 20260506142031 | 15 | 127 | 4.8 | 4.8 | 0.00 | 1.22 | 1.22 | 99 | 1005.8 |
| 20260506141528 | 15 | 126 | 0.0 | 0.0 | 0.13 | 1.22 | 1.22 | 99 | 1005.6 |
| 20260506141026 | 15 | 114 | 1.6 | 1.6 | 0.13 | 1.22 | 1.22 | 99 | 1005.5 |
| 20260506140523 | 15 | 121 | 1.6 | 1.6 | 0.13 | 1.22 | 1.22 | 99 | 1005.5 |
| 20260506140020 | 15 | 129 | 3.2 | 3.2 | 0.00 | 1.19 | 1.19 | 99 | 1005.4 |
| 20260506135517 | 15 | 126 | 1.6 | 1.6 | 0.00 | 1.19 | 1.19 | 99 | 1005.7 |
| 20260506135013 | 15 | 128 | 3.2 | 4.8 | 0.00 | 1.19 | 1.19 | 99 | 1005.6 |
| 20260506134510 | 15 | 120 | 1.6 | 3.2 | 0.18 | 1.19 | 1.19 | 99 | 1005.5 |
| 20260506134006 | 15 | 122 | 3.2 | 3.2 | 0.18 | 1.19 | 1.19 | 99 | 1005.5 |
| 20260506133503 | 15 | 132 | 0.0 | 0.0 | 0.00 | 1.17 | 1.17 | 99 | 1005.2 |
| 20260506133000 | 15 | 136 | 6.4 | 11.3 | 0.00 | 1.17 | 1.17 | 99 | 1005.1 |
| 20260506132457 | 15 | 127 | 3.2 | 3.2 | 0.00 | 1.17 | 1.17 | 99 | 1005.0 |
| 20260506131954 | 15 | 121 | 3.2 | 3.2 | 0.00 | 1.17 | 1.17 | 99 | 1004.7 |
| 20260506131451 | 15 | 128 | 1.6 | 1.6 | 0.00 | 1.17 | 1.17 | 99 | 1004.7 |
| 20260506130948 | 15 | 130 | 0.0 | 1.6 | 0.13 | 1.17 | 1.17 | 99 | 1004.6 |
| 20260506130444 | 15 | 121 | 4.8 | 4.8 | 0.13 | 1.17 | 1.17 | 99 | 1004.5 |
| 20260506125942 | 15 | 124 | 4.8 | 8.0 | 0.00 | 1.14 | 1.14 | 99 | 1004.4 |
| 20260506125440 | 15 | 121 | 1.6 | 1.6 | 0.00 | 1.14 | 1.14 | 99 | 1004.2 |
| 20260506124938 | 15 | 120 | 4.8 | 4.8 | 0.00 | 1.14 | 1.14 | 99 | 1004.4 |
| 20260506124435 | 15 | 129 | 3.2 | 3.2 | 0.00 | 1.14 | 1.14 | 99 | 1004.6 |
| 20260506123933 | 15 | 122 | 4.8 | 4.8 | 0.00 | 1.14 | 1.14 | 99 | 1004.1 |
| 20260506123431 | 15 | 118 | 3.2 | 3.2 | 0.00 | 1.14 | 1.14 | 99 | 1004.5 |
| 20260506122928 | 15 | 110 | 3.2 | 3.2 | 0.00 | 1.14 | 1.14 | 99 | 1004.1 |
| 20260506122425 | 15 | 127 | 6.4 | 8.0 | 0.00 | 1.14 | 1.14 | 99 | 1004.2 |
| 20260506121924 | 15 | 139 | 3.2 | 3.2 | 0.00 | 1.14 | 1.14 | 99 | 1004.1 |
| 20260506121420 | 15 | 116 | 1.6 | 1.6 | 0.00 | 1.14 | 1.14 | 99 | 1004.0 |
| 20260506120917 | 15 | 130 | 1.6 | 3.2 | 0.00 | 1.14 | 1.14 | 99 | 1004.0 |
| 20260506120415 | 15 | 126 | 1.6 | 3.2 | 0.00 | 1.14 | 1.14 | 99 | 1003.9 |
| 20260506115912 | 15 | 133 | 1.6 | 1.6 | 0.00 | 1.14 | 1.14 | 99 | 1004.0 |
| 20260506115410 | 15 | 127 | 3.2 | 3.2 | 0.00 | 1.14 | 1.14 | 99 | 1004.0 |
| 20260506114908 | 15 | 118 | 3.2 | 3.2 | 0.00 | 1.14 | 1.14 | 99 | 1003.8 |
| 20260506114405 | 15 | 128 | 1.6 | 3.2 | 0.00 | 1.14 | 1.14 | 99 | 1003.8 |
| 20260506113904 | 15 | 126 | 3.2 | 3.2 | 0.00 | 1.14 | 1.14 | 99 | 1003.8 |